{"data":{"norad_id":56888,"epoch":"2026-09-20T21:39:50.254272Z","epoch_age_seconds":82809,"freshness":"FRESH","line1":"1 56888U 23083N   26263.90266498 -.00000761  00000+0 -18122-4 0  9997","line2":"2 56888  43.0059  66.3210 0001518 269.0343  91.0335 15.27576463181443","mean_motion":15.27576463,"eccentricity":0.0001518,"inclination_deg":43.0059,"raan_deg":66.321,"arg_perigee_deg":269.0343,"mean_anomaly_deg":91.0335,"bstar":-1.8122e-5,"rev_number":18144,"period_min":94.266966981934,"perigee_km":482.01815745341,"apogee_km":484.10121676762,"semimajor_km":6861.1966871105,"source":"CELESTRAK","updated_at":"2026-09-21T09:00:33.521791Z"}}